242P/Spahr (2003)

Japanese version
Home page
Updated on September 4, 2024

---------------------------------------------------------------------

* Profile

* Pictures

* Orbital Elements

Epoch 2024 Oct. 17.0 TT = JDT 2460600.5
T 2024 Dec. 23.09344 TT                                 Rudenko
q   3.9716092            (2000.0)            P               Q
n   0.07568686     Peri.  244.87737     +0.42028247     -0.90738838
a   5.5350607      Node   180.32002     +0.89642746     +0.41468938
e   0.2824633      Incl.   32.43580     -0.14064300     -0.06840359
P  13.0
>From 536 observations 2011 July 20-2024 Aug. 11, mean residual 0".7.

* Magnitudes Graph

        m1 = 1.0 + 5 log d + 22.5 log r(t - 120)

---------------------------------------------------------------------

The orbital elements are published on M.P.E.C. 2024-Q20.
The magnitudes graphs are made with Comet for Windows.

---------------------------------------------------------------------

Copyright(C) Seiichi Yoshida (comet@aerith.net). All rights reserved.